Theta_e
309 308 308 307 309 310 310 310 310 310 310 311 311 311 311 311 311 302 297 298 296 295 296 302 308 305 304 306 300 304 305 306 307 304 302 300 300 301 300 300 296 295 293 294 297 295 296 311 313 308 311 316 326 328
307 307 307 308 309 309 310 310 310 310 311 311 311 311 311 311 311 304 293 299 303 293 292 300 305 306 307 308 304 302 304 305 308 304 304 305 304 302 299 298 305 299 296 296 301 301 306 311 313 315 318 324 327 328
307 307 307 308 309 309 309 310 310 310 310 310 311 311 311 311 311 309 302 300 293 289 291 293 296 302 304 306 311 301 302 310 311 312 307 306 302 304 299 300 303 308 309 304 305 306 310 312 316 317 323 327 329 328
308 308 308 309 309 309 309 310 310 310 310 310 311 311 310 310 311 310 302 298 297 290 286 289 303 303 308 306 305 308 307 315 314 313 306 303 303 307 302 305 305 310 309 306 305 309 312 316 318 321 324 325 323 323
309 309 309 309 309 309 309 309 310 310 310 310 310 310 310 310 310 306 301 299 301 291 286 289 294 299 301 303 306 306 307 304 310 307 305 304 306 308 306 306 304 311 308 306 305 309 308 311 319 322 322 321 321 317
309 309 309 309 309 309 309 309 310 310 310 310 310 310 310 310 310 295 289 295 299 300 288 286 295 300 306 302 302 304 306 304 309 307 305 309 310 308 302 300 308 311 313 314 312 315 315 319 321 322 320 320 320 317
308 309 308 308 309 309 309 309 310 310 310 310 309 310 310 310 304 294 289 297 300 298 293 293 293 303 308 303 303 305 306 307 307 307 309 308 309 311 304 301 309 314 316 317 319 318 316 316 316 320 320 318 316 314
308 308 308 309 309 309 309 309 309 309 309 309 310 310 310 309 307 300 301 306 303 298 295 292 294 298 308 304 305 310 304 309 311 309 312 309 308 308 303 308 310 316 318 318 316 318 317 316 315 313 314 313 310 308
308 308 309 309 308 309 309 309 309 309 310 310 310 310 305 302 297 294 309 308 305 298 294 297 294 293 309 306 308 309 310 304 313 309 309 310 305 302 308 309 310 315 315 316 318 319 317 314 314 314 313 311 308 307
308 308 308 309 309 309 309 309 309 310 309 309 303 295 294 296 305 306 302 293 290 291 292 292 296 295 303 303 305 305 307 305 303 309 314 309 307 313 314 311 313 316 317 319 317 315 315 313 313 312 311 311 310 309
308 308 309 308 308 309 309 309 309 309 304 296 292 290 299 306 303 301 298 293 290 290 292 293 295 295 304 298 301 307 303 306 301 308 308 304 301 309 316 315 314 318 318 319 321 320 320 316 313 311 310 309 309 309
308 308 308 308 308 308 308 309 308 300 294 296 296 298 294 297 298 295 292 293 295 292 296 298 302 300 304 307 304 306 304 305 301 311 307 301 304 310 313 315 317 317 321 320 320 318 317 316 315 314 310 309 309 309
308 308 307 308 307 307 307 308 307 307 304 295 292 288 292 295 289 288 286 290 291 296 300 305 304 304 308 307 305 305 302 302 311 304 304 307 308 312 313 316 320 319 321 320 319 319 317 316 315 313 310 311 310 309
308 307 307 307 307 307 307 307 307 303 294 289 292 286 289 288 292 290 291 292 296 298 303 304 305 303 305 301 304 301 304 305 301 299 302 305 309 311 311 318 319 319 319 318 317 317 315 316 316 314 312 311 310 308
307 307 307 306 307 307 307 307 306 300 291 289 293 282 286 290 292 294 297 297 300 301 304 304 306 306 302 302 302 301 300 299 301 301 305 306 306 309 311 317 317 318 318 317 318 316 316 315 314 312 311 311 310 309
306 305 302 307 307 306 306 303 300 298 293 291 290 289 289 287 290 294 297 298 299 303 308 307 303 302 298 300 299 298 299 298 302 305 307 312 309 309 314 317 318 319 319 319 318 316 315 313 312 311 309 309 310 310
305 296 306 307 306 305 306 298 297 295 289 288 287 289 289 290 289 291 294 299 307 305 302 304 300 300 301 299 298 302 300 303 306 313 315 314 310 312 315 317 318 317 316 316 316 316 314 313 311 309 307 307 308 308
296 298 306 307 302 300 300 295 290 290 289 288 286 288 293 292 291 293 297 303 306 306 303 304 307 302 298 297 299 305 308 311 320 313 312 313 313 315 317 316 316 317 316 315 314 312 312 312 310 309 308 307 307 307
300 301 304 306 300 295 295 296 292 285 287 288 289 290 292 292 295 297 298 301 305 310 307 306 302 300 302 307 309 310 314 315 316 314 313 313 315 316 316 317 316 314 314 313 313 312 312 312 310 310 309 309 307 307
308 309 309 308 303 295 294 295 297 291 288 289 290 290 291 293 298 302 303 306 308 307 306 303 305 306 308 312 314 314 316 318 317 314 314 314 316 316 315 316 314 313 312 311 310 308 310 309 309 310 310 309 308 307
306 306 308 306 300 298 295 293 296 294 293 292 295 295 296 299 301 302 304 306 305 304 303 308 309 309 313 314 315 316 315 313 314 316 315 314 316 316 315 315 316 315 313 312 310 307 309 310 308 309 309 308 309 309
303 307 301 302 297 298 295 297 291 293 294 295 295 296 296 296 299 304 306 304 302 305 306 307 309 311 313 313 311 315 316 318 319 316 311 313 315 315 314 314 315 313 313 312 312 311 309 309 310 309 309 309 308 310
307 305 302 300 296 293 291 298 293 294 294 297 299 297 297 300 304 309 303 306 308 311 311 309 311 310 311 312 314 316 317 319 321 318 318 318 317 317 316 316 315 313 311 310 311 311 310 305 306 309 309 309 310 310
305 298 296 294 295 290 296 291 295 296 297 296 296 296 299 300 304 301 300 302 307 311 310 311 311 310 311 312 312 314 315 318 321 321 320 318 316 315 317 316 315 315 315 312 311 311 310 310 305 309 310 310 309 310
291 291 291 287 294 293 291 291 293 294 293 295 295 295 297 301 298 299 299 303 308 310 311 312 312 311 310 311 312 314 316 317 321 319 320 320 316 316 313 313 312 312 314 312 311 311 310 310 311 311 310 309 308 308
287 292 289 292 292 290 290 289 291 291 292 293 295 297 299 299 299 300 304 307 312 314 314 314 313 309 309 311 313 315 316 320 323 320 320 320 319 317 315 312 310 311 314 315 312 311 310 311 312 312 309 306 300 307
288 290 293 296 292 293 292 291 291 290 291 292 294 296 298 296 299 304 309 312 313 317 317 315 314 311 311 314 317 317 320 322 323 322 323 321 321 320 318 315 313 314 314 314 313 313 311 310 310 310 309 308 309 308
294 295 291 293 291 291 290 290 290 291 292 295 297 295 296 300 300 307 312 315 317 318 314 315 314 315 317 319 319 319 321 322 322 321 320 318 317 318 318 317 317 303 314 315 314 314 313 311 310 310 310 310 310 311
293 296 296 293 294 294 293 291 291 293 296 298 297 297 301 306 310 312 314 316 320 313 312 312 315 318 319 320 319 320 322 322 320 316 313 312 314 315 315 316 313 315 314 311 302 307 313 312 312 312 313 312 311 312
295 299 294 295 294 293 296 296 294 297 300 302 302 302 303 305 309 314 316 318 314 313 314 316 317 318 317 316 316 319 320 320 322 319 314 314 316 315 315 316 315 313 313 312 310 307 301 309 308 313 312 311 311 308
299 298 297 297 296 298 300 301 302 302 301 301 302 301 301 303 309 313 315 316 314 314 314 314 316 319 318 317 316 317 317 319 320 319 319 317 315 313 313 313 313 315 313 312 312 311 310 311 311 311 311 308 306 305
299 296 296 295 297 303 303 300 299 299 299 299 301 302 303 304 306 312 316 318 314 313 310 315 318 318 319 320 319 319 307 319 318 317 316 315 313 313 312 310 311 313 313 312 311 311 311 309 308 309 308 307 307 306
301 300 300 300 301 301 302 303 301 299 300 300 303 307 306 308 306 312 318 320 321 318 318 320 319 318 317 315 317 316 311 318 311 302 302 302 302 305 310 311 312 313 313 312 312 311 309 309 308 308 308 307 307 307
Wind_Speed
10 11 12 13 13 12 13 12 12 12 13 13 13 14 14 13 14 3 3 1 2 3 9 6 4 4 2 1 2 4 4 2 3 3 1 3 2 0 3 3 2 7 7 5 2 4 2 7 5 10 9 3 15 13
11 11 12 14 13 12 13 13 13 13 13 13 14 14 13 13 11 3 1 2 2 4 9 3 9 12 12 14 2 3 3 2 4 1 1 1 1 0 4 3 2 4 6 4 8 9 3 7 6 2 4 14 10 15
11 11 12 12 12 12 13 14 13 14 14 14 14 14 14 12 11 6 2 1 2 3 8 3 10 13 15 23 11 4 3 5 2 3 2 2 3 3 5 6 3 5 4 3 3 3 5 6 1 4 3 9 16 15
11 13 12 13 13 13 14 14 14 14 14 14 14 14 14 13 12 8 4 2 0 1 5 11 5 9 6 13 18 23 9 3 1 1 1 2 3 3 3 2 3 3 3 4 6 8 3 3 4 4 7 13 16 14
11 12 13 13 13 14 14 14 14 14 14 14 15 14 14 13 12 6 4 4 6 4 5 9 12 11 11 16 18 18 16 7 2 3 1 3 2 1 1 1 4 6 7 6 7 4 2 6 5 10 17 17 19 23
12 12 12 13 13 13 14 14 14 14 14 14 15 14 14 13 9 4 4 2 3 3 1 7 6 7 5 4 12 11 10 4 4 4 4 4 3 3 2 4 7 5 5 6 3 3 1 1 7 4 12 14 14 20
12 12 12 13 13 13 13 14 14 14 15 15 16 15 14 11 2 2 4 3 4 3 3 7 7 6 4 4 3 4 6 4 5 3 4 3 2 5 2 4 6 6 6 3 5 3 4 4 5 11 13 16 16 16
12 12 13 13 13 12 13 14 14 15 16 16 16 15 15 13 8 6 7 15 7 2 2 5 8 6 4 2 3 3 4 2 3 5 2 3 0 2 5 10 7 2 3 5 6 8 8 9 15 14 14 19 17 16
11 12 12 12 12 12 13 14 14 15 15 16 16 17 4 1 2 4 5 3 7 3 4 4 3 5 6 3 0 1 4 3 2 3 3 4 3 6 10 10 7 8 8 7 9 21 14 9 13 14 15 15 19 14
10 11 11 11 12 12 12 13 14 14 15 15 2 2 2 4 6 4 3 1 2 4 3 5 3 6 3 3 4 2 3 4 4 2 2 4 6 14 16 11 7 11 9 13 8 15 11 3 5 9 10 11 15 14
10 10 10 10 11 10 10 11 13 11 7 3 2 3 3 8 2 3 3 4 3 4 5 6 7 7 3 4 5 3 3 3 3 3 3 5 5 10 17 18 10 9 8 6 10 14 19 16 13 15 11 12 13 14
10 9 8 9 9 8 9 9 9 2 2 3 2 3 3 2 2 3 4 1 5 6 4 4 4 7 5 3 2 3 4 0 4 5 2 5 6 4 3 4 6 9 7 8 10 17 14 13 15 8 13 14 13 12
8 8 8 8 8 9 9 7 7 6 5 2 0 2 1 3 6 6 6 4 3 3 3 2 5 3 2 2 4 2 3 3 4 1 5 6 4 4 9 7 10 9 9 9 13 14 18 13 11 12 15 11 12 12
7 8 8 9 11 11 8 5 6 3 2 1 3 5 5 5 5 4 1 2 5 4 5 6 4 3 2 1 3 3 2 4 4 3 7 4 4 4 4 5 8 9 11 13 15 16 19 17 10 10 11 13 14 13
6 7 8 10 5 4 6 7 5 1 2 3 2 5 6 4 3 4 5 3 4 3 3 4 2 2 2 4 3 1 3 3 5 6 3 4 3 5 6 5 8 11 13 14 15 16 17 16 13 10 10 10 11 12
6 8 3 5 5 6 8 1 0 1 1 3 5 5 4 2 5 3 3 4 3 3 3 3 2 4 5 4 4 6 5 5 3 3 5 4 4 6 5 6 8 9 13 15 13 14 15 14 14 12 9 10 11 13
3 3 3 3 5 6 2 1 1 3 3 4 5 4 4 4 7 6 3 4 2 5 4 3 6 6 2 3 3 4 5 3 2 5 4 4 3 4 6 7 11 14 15 16 16 13 12 11 14 13 12 5 8 8
4 3 2 3 3 3 0 2 1 3 6 5 4 3 3 5 4 5 5 5 4 3 2 1 2 3 3 3 2 1 3 3 2 3 4 3 4 7 7 10 11 13 14 14 13 12 13 14 12 7 10 9 9 8
5 3 6 4 1 1 2 2 3 4 6 3 4 4 4 5 6 9 6 6 6 5 4 2 3 4 3 2 3 3 3 2 3 3 3 5 8 10 10 10 13 13 14 14 13 9 9 10 10 9 8 8 8 5
11 12 12 8 6 0 3 3 2 3 5 4 3 4 4 5 3 3 4 4 3 3 4 4 4 2 2 2 3 5 5 2 1 3 6 6 5 9 9 6 9 13 12 12 10 11 9 8 6 8 7 8 8 6
3 1 3 5 2 2 3 3 4 4 4 4 3 3 5 2 3 3 3 3 2 3 3 2 3 3 4 3 5 4 4 1 1 3 4 6 5 8 8 7 6 9 12 10 10 7 8 7 6 6 7 6 5 6
2 4 2 2 2 3 4 4 4 4 3 4 4 3 4 3 2 2 0 2 3 4 4 4 3 3 1 3 4 1 0 3 3 7 7 9 9 9 6 4 7 7 7 8 9 8 6 6 6 6 6 5 5 4
1 3 2 4 3 2 6 2 3 3 4 3 3 3 3 2 3 0 3 2 3 4 2 2 4 4 3 2 4 2 2 6 3 2 3 7 8 9 6 4 5 10 8 3 5 7 7 8 7 7 5 5 4 3
2 1 2 2 3 4 3 3 3 3 4 3 3 5 3 4 3 1 2 3 3 1 3 4 3 1 1 1 1 2 3 1 4 4 2 6 10 7 5 4 4 5 6 7 7 7 7 6 7 6 5 5 4 4
2 2 2 4 3 3 3 4 3 3 4 3 4 5 4 3 2 1 2 3 2 3 2 1 2 2 4 3 2 2 2 3 3 4 3 6 10 8 5 4 4 4 7 9 6 8 6 6 5 6 6 5 5 5
3 4 6 3 3 3 3 3 3 3 4 4 4 4 4 4 5 3 4 5 5 4 6 4 2 1 1 1 2 3 3 3 4 5 2 6 7 9 8 8 5 1 1 6 8 8 8 6 5 6 5 5 6 5
3 5 4 3 2 2 3 3 3 2 4 4 4 4 2 3 0 3 3 2 5 4 4 4 3 2 2 0 1 2 1 1 1 4 5 5 4 4 8 10 8 5 6 7 7 8 9 6 5 4 4 3 3 4
4 3 5 4 3 3 2 4 3 3 3 3 4 3 4 4 2 3 3 1 4 4 4 4 3 2 3 2 1 0 3 4 8 10 7 6 5 3 4 5 5 13 7 6 6 6 7 7 7 6 5 5 4 4
3 2 3 4 3 3 5 5 4 3 2 1 3 3 3 2 2 3 4 5 5 3 2 2 3 2 2 2 2 0 4 6 12 13 11 5 3 1 3 4 5 4 5 5 7 5 10 8 7 7 5 4 4 4
4 4 3 3 3 4 5 6 4 3 2 3 2 4 4 3 3 3 3 5 5 3 2 1 0 3 2 2 1 4 3 3 5 10 9 6 5 4 4 5 6 6 6 6 7 7 10 8 6 4 5 4 5 6
3 4 3 3 3 4 5 4 2 2 3 3 3 3 4 4 4 1 2 4 3 3 2 4 4 3 3 4 1 5 4 4 6 7 6 5 6 5 5 5 5 6 7 7 7 6 7 4 4 6 7 8 9 8
5 6 4 4 3 2 2 2 2 2 2 2 3 2 3 2 3 2 3 5 4 3 3 3 2 1 1 3 2 2 1 5 4 6 9 6 5 5 6 5 5 6 8 7 6 7 9 9 7 7 9 11 10 10
4 3 2 3 2 2 3 3 3 3 3 3 3 2 2 2 2 2 2 1 1 3 3 3 3 2 3 2 2 3 5 4 8 10 11 11 12 9 6 5 5 7 9 7 7 7 8 10 9 10 10 11 10 8
Wind_Direction
309 322 322 320 322 324 325 326 329 332 333 334 336 337 339 345 350 71 282 285 82 286 277 234 234 234 288 188 218 290 355 310 330 42 177 229 144 313 30 309 233 179 154 191 117 90 184 150 70 172 198 149 144 150
308 312 313 311 316 317 318 317 319 322 322 323 325 327 330 337 341 57 322 290 353 211 255 269 253 264 251 249 163 298 247 274 234 88 256 68 251 34 142 258 33 262 175 194 183 208 279 226 191 224 179 143 157 147
299 305 308 308 311 312 313 313 312 314 316 320 322 323 324 325 327 335 259 291 30 295 289 285 238 252 225 229 208 201 273 230 242 177 174 233 241 127 167 226 248 222 169 189 10 290 263 280 335 160 242 138 149 143
289 297 299 308 309 311 311 309 308 310 310 313 316 319 320 319 317 315 279 159 169 271 277 279 304 266 231 201 208 217 228 28 29 109 142 226 231 177 220 225 202 233 121 176 264 274 275 214 244 139 96 106 110 118
291 295 296 299 303 305 307 307 306 306 307 308 312 315 315 316 313 303 231 210 194 169 272 286 301 267 236 217 196 202 217 224 325 342 24 256 237 140 247 25 251 188 184 170 233 231 156 268 161 148 139 142 137 125
284 289 294 299 301 301 303 305 302 301 304 305 307 308 309 313 336 3 344 354 200 187 324 299 295 294 319 162 198 197 189 164 190 181 219 243 227 131 229 234 256 220 206 175 262 311 235 187 98 100 133 135 132 128
284 288 294 297 299 299 301 303 302 300 302 303 304 301 299 295 273 227 199 218 140 127 259 291 293 273 294 116 126 112 149 189 148 231 224 202 227 133 252 242 251 223 213 250 225 158 70 1 136 112 118 105 97 97
286 290 293 295 300 302 302 304 304 302 301 300 297 295 293 281 262 263 248 217 176 254 252 275 276 312 359 263 115 147 130 188 194 204 155 172 90 131 253 242 273 186 100 116 90 75 87 112 92 98 107 110 105 112
285 290 293 299 300 301 302 304 303 302 299 297 299 305 285 162 195 242 38 171 169 230 278 233 277 282 346 315 338 221 159 154 191 191 211 137 171 222 231 239 213 192 186 166 135 98 65 35 116 121 126 116 114 118
286 290 294 299 302 304 306 304 307 307 304 309 321 51 260 215 232 193 225 117 144 239 246 243 254 265 359 344 286 241 225 149 156 202 142 213 231 236 251 246 208 210 175 171 157 79 87 70 96 116 118 116 121 127
284 288 294 303 311 306 306 313 315 318 355 33 5 260 303 316 164 203 225 187 166 246 214 230 212 247 257 194 232 217 217 168 137 190 102 261 267 218 223 236 188 178 189 270 135 127 154 150 154 132 124 116 119 127
284 288 291 300 307 309 310 311 331 47 210 203 243 298 313 285 213 234 234 226 199 236 208 208 228 200 258 189 188 238 196 186 175 141 129 261 254 256 128 206 168 144 139 113 122 114 108 136 117 159 125 124 134 130
280 287 294 291 296 303 302 305 315 275 287 22 165 263 199 251 210 213 216 219 243 244 237 328 304 229 270 194 252 216 192 154 134 90 230 232 265 203 179 166 137 146 134 115 109 112 118 118 122 153 129 130 130 130
274 286 288 289 294 292 282 297 320 358 77 218 240 258 215 226 232 218 101 264 259 257 300 305 243 217 256 225 202 208 196 134 141 223 243 237 233 195 185 134 123 163 138 131 128 127 125 127 140 132 131 143 138 141
283 291 295 293 273 307 295 280 298 129 126 252 238 244 233 254 284 264 267 258 249 250 245 283 246 306 274 273 204 80 165 207 201 232 257 286 251 191 176 164 147 147 143 139 139 136 137 134 143 134 140 143 133 132
300 314 247 230 302 303 307 317 173 131 250 243 235 256 260 335 282 268 262 288 301 245 234 210 171 274 250 209 183 211 155 209 243 253 259 281 258 197 184 156 147 138 137 131 130 131 131 138 144 133 116 128 138 140
303 234 237 313 324 320 202 87 65 225 222 259 251 221 253 267 252 255 230 250 243 286 246 239 164 234 294 237 237 187 200 218 276 280 284 280 217 163 126 120 125 122 120 120 120 133 121 123 122 122 126 123 126 125
233 252 348 347 4 313 337 153 192 259 254 239 247 241 208 220 243 244 236 238 253 254 259 306 295 245 250 245 245 286 333 316 304 315 313 345 88 93 101 108 110 117 121 115 122 119 128 123 124 131 126 124 110 110
229 225 242 277 173 346 274 208 151 255 246 251 261 241 231 242 232 244 251 252 247 252 283 272 249 231 254 296 308 331 326 261 322 334 2 39 76 93 102 110 113 110 115 115 118 125 127 135 141 134 131 135 130 131
265 263 254 235 153 197 260 235 177 253 270 251 249 263 230 231 247 238 235 230 208 221 221 220 212 241 231 281 314 305 294 309 237 73 62 48 60 86 90 112 115 113 103 105 105 111 109 100 97 122 129 131 134 150
320 135 70 139 136 215 271 280 240 224 255 249 256 226 253 237 240 231 229 168 211 225 261 202 271 279 254 257 274 268 295 331 258 230 150 108 80 91 101 101 121 125 124 127 120 111 120 132 130 125 126 126 137 155
247 164 114 198 227 208 245 207 234 273 268 263 297 224 258 281 291 238 142 225 236 225 211 197 198 245 159 257 284 285 115 34 44 91 95 118 123 112 105 115 123 108 109 119 130 133 118 119 121 122 127 136 133 138
280 163 221 193 251 248 263 188 248 240 262 261 281 260 230 151 241 168 269 255 278 260 173 208 235 229 201 278 304 311 28 84 46 106 118 119 104 100 98 94 137 122 117 80 103 116 127 133 129 128 121 126 133 132
108 198 231 236 220 264 291 260 240 261 270 259 248 265 239 202 161 229 271 286 265 222 235 228 208 157 28 10 331 309 319 38 109 91 65 141 123 89 87 103 84 86 118 124 126 128 132 127 124 136 142 137 146 154
114 246 148 268 254 259 258 274 253 274 263 273 281 293 318 331 272 54 127 250 256 353 7 282 242 156 160 190 232 197 199 182 140 111 113 98 96 90 82 80 76 93 131 124 123 129 130 140 152 153 152 145 159 184
214 211 185 226 226 199 253 275 285 302 296 284 270 302 3 346 345 359 358 345 344 352 355 338 335 24 333 218 219 207 178 142 136 109 107 132 145 143 141 130 123 99 135 133 137 141 143 148 150 150 135 143 149 140
224 222 222 222 233 302 282 268 264 280 278 280 330 330 339 265 254 328 326 337 338 329 314 301 258 200 217 278 310 343 89 135 165 133 116 106 114 126 146 149 157 164 148 149 151 149 148 151 155 158 142 113 145 161
240 206 205 178 195 205 261 287 266 250 269 299 312 288 318 17 339 302 267 258 315 319 315 317 351 69 69 17 32 285 107 102 101 98 83 53 55 78 108 97 109 142 144 149 136 127 139 146 148 151 160 173 189 194
232 231 166 213 214 222 218 216 252 252 232 304 315 283 311 286 243 262 303 326 333 324 19 40 19 45 27 293 321 8 168 151 121 114 107 105 93 53 94 119 131 120 116 109 90 124 149 146 151 172 176 140 158 133
218 175 206 216 197 230 243 188 230 246 244 241 257 304 299 281 270 282 295 332 346 11 356 233 122 74 21 5 71 114 33 17 128 134 139 148 189 165 151 140 130 127 125 120 110 101 83 92 97 99 122 137 122 117
149 174 232 205 236 232 229 225 239 240 262 259 242 234 255 287 300 255 313 304 315 320 69 54 8 40 27 22 126 126 93 19 95 108 114 122 136 143 143 125 130 131 129 130 136 135 133 130 147 148 138 116 118 128
156 184 196 213 249 228 129 196 250 269 285 287 279 263 297 313 275 293 335 335 357 21 356 45 41 351 246 287 250 238 235 134 132 130 127 130 131 130 118 118 124 126 130 131 134 137 147 146 144 136 128 133 141 147
140 156 203 287 265 233 188 161 204 271 249 246 244 232 232 245 278 307 313 353 322 307 315 301 301 321 346 334 210 146 124 115 125 125 127 129 129 121 111 116 123 123 125 127 128 136 139 137 135 141 144 151 156 162